Terug naar catalogus

STARLINK-30067

ActiefCommunicatieVLEO
NORAD 56693·PAYLOAD·🇺🇸 United States

Gelanceerd May 19, 2023 vanaf Cape Canaveral Space Force Station

Loading…

Volgende Passages (komende 24 uur)

TLE

VersSource: CelesTrak SupGP

Epoch: Sep 14, 2026, 21:05 UTC

1 56693C 23067F   26257.87895833 -.00007943  00000+0 -28771-3 0  2579
2 56693  43.0021 292.8714 0001592 262.9403  99.9614 15.27581975    16

Volg STARLINK-30067 in realtime met AllMySat

Download on the App Store